Regional Weather Roundup
Issued by NWS

Home | Current Version | Previous Version | Graphics & Text | Print | Product List | Glossary On
Versions: 1 2 3 4 5 6 7 8 9 10 11 12 13 14 15 16 17 18 19 20 21 22 23 24 25 26 27 28 29 30 31 32 33 34 35 36 37 38 39 40 41 42 43 44 45 46 47 48 49 50
000
ASUS45 KTFX 072210
RWRMT
MONTANA REGIONAL WEATHER ROUNDUP
NATIONAL WEATHER SERVICE GREAT FALLS MT
400 PM MDT TUE JUL 07 2015

NOTE: "FAIR" INDICATES FEW OR NO CLOUDS BELOW 12000 FEET WITH NO
SIGNIFICANT WEATHER AND/OR OBSTRUCTIONS TO VISIBILITY.

MTZ001>007-043-072300-
WEST OF THE DIVIDE

CITY           SKY/WX    TMP DP  RH WIND       PRES   REMARKS
KALISPELL      MOCLDY    74  52  46 VRB3      30.07F HAZE
MISSOULA       MOSUNNY   79  46  31 N18G29    30.02S
BUTTE          PTSUNNY   73  40  30 N6        30.12F
MULLAN PASS    PTSUNNY   71  48  43 VRB5      30.18S
DEER LODGE       N/A     75  45  33 CALM      30.10F
EUREKA           N/A     82  50  32 SW6       30.01F
HAMILTON         N/A     73  48  40 S5        30.04S
LIBBY            N/A     79  54  41 CALM      30.03F
PLAINS           N/A     77  49  37 NW3       30.03F
RONAN            N/A     69  55  60 N6        30.11F
$$

MTZ008-052>055-072300-
SOUTHWEST MONTANA

CITY           SKY/WX    TMP DP  RH WIND       PRES   REMARKS
BOZEMAN        MOSUNNY   82  45  27 N3        30.01F
DILLON         LGT RAIN  70  48  45 N23       30.04R
W YELLOWSTONE  PTSUNNY   73  39  29 E3        30.11F
THREE FORKS      N/A     78  51  38 NW13      30.02F
TWIN BRIDGES     N/A     79  40  24 N15       30.03S
$$

MTZ009-010-012-014-046-048-049-054-072300-
EAST SLOPES AND CENTRAL MONTANA

CITY           SKY/WX    TMP DP  RH WIND       PRES   REMARKS
CUT BANK       CLOUDY    66  48  52 SW3       30.14F
GREAT FALLS    PTSUNNY   65  51  60 N6        30.14F
MALMSTROM AFB  PTSUNNY   61  53  75 NE5       30.14F
HELENA         MOSUNNY   73  48  41 N20G29    30.08F
CONRAD           N/A     69  55  60 CALM      30.15F
$$

MTZ011-013-016-021-045-047-050-051-072300-
NORTH CENTRAL MONTANA

CITY           SKY/WX    TMP DP  RH WIND       PRES   REMARKS
HAVRE          CLOUDY    72  53  51 SW15      30.06F
LEWISTOWN      PTSUNNY   71  50  47 N17G24    30.12S
CHINOOK          N/A     72  54  53 SW14      30.05R
FORT BENTON      N/A     63  55  77 SW7       30.14S
$$

MTZ017>020-022>027-061-062-072300-
NORTHEAST MONTANA

CITY           SKY/WX    TMP DP  RH WIND       PRES   REMARKS
GLASGOW        PTSUNNY   82  44  26 W15       29.98S
JORDAN           N/A     81  45  28 N7        30.00F
SIDNEY         SUNNY     81  48  32 CALM      29.98F
WOLF POINT     PTSUNNY   80  46  30 CALM      29.98F
MALTA            N/A     79  46  31 W2        29.98S
PLENTYWOOD       N/A     73  54  49 SW12      29.98F
POPLAR           N/A     77  48  36 W5        29.98F
SCOBEY           N/A     78  43  28 NW2       29.97F
$$

MTZ028>42-056>058-072300-
SOUTHCENTRAL AND SOUTHEAST MONTANA

CITY           SKY/WX    TMP DP  RH WIND       PRES   REMARKS
BAKER          MOSUNNY   80  49  33 NW13G22   29.97F
BILLINGS       MOSUNNY   83  40  21 NE12G21   30.02F
LIVINGSTON     MOSUNNY   78  43  28 NE15      30.05S
MILES CITY     MOSUNNY   82  42  24 N10       29.97F
FORSYTH          N/A     81  45  28 W9        29.98F
LAUREL           N/A     84  43  23 N10       30.00F
ROUNDUP          N/A     78  41  26 N18       29.95F
$$

REGIONAL REPORTS...DAKOTAS

CITY           SKY/WX    TMP DP  RH WIND       PRES   REMARKS
WILLISTON      MOSUNNY   82  44  26 SW9       29.97F
MINOT          SUNNY     75  54  47 S9        29.99F
DICKINSON      MOSUNNY   71  58  63 SE16      29.98F
BEACH          MOCLDY    68  66  94 SE3       29.99F
CROSBY         FAIR      68  61  77 E6        29.98F
BISMARCK       PTSUNNY   74  55  51 S15       30.04F
GRAND FORKS    MOSUNNY   74  43  32 S13       30.07F
FARGO          SUNNY     73  43  33 S10       30.11S
BUFFALO SD       N/A     79  48  33 S9        29.91F
RAPID CITY     MOSUNNY   73  57  57 S17G28    30.04F
$$

REGIONAL REPORTS...WYOMING/IDAHO/WASHINGTON

CITY           SKY/WX    TMP DP  RH WIND       PRES   REMARKS
GILLETTE       PTSUNNY   70  54  56 S14       30.04S
SHERIDAN       LGT RAIN  66  52  60 SW13G23   30.04S
BUFFALO WY     PTSUNNY   68  52  56 W9        30.10F
CODY           CLOUDY    64  50  59 W8        30.09R
YELLOWSTONE LA   N/A     66  43  43 SE7       30.22F
IDAHO FALLS    MOSUNNY   82  46  28 VRB5      30.00F
SALMON         CLOUDY    73  46  38 N18G25    30.04R
BOISE          MOSUNNY   95  46  18 NW13      29.88F HX  91
SPOKANE        PTSUNNY   89  47  23 N8        29.92F
$$

REGIONAL REPORTS...ALBERTA

CITY           SKY/WX    TMP DP  RH WIND       PRES   REMARKS
EDMONTON       SUNNY     66  37  34 SW7       30.08F
CALGARY        PTSUNNY   63  52  67 NE6       30.15S
LETHBRIDGE     MOSUNNY   72  50  46 W6        30.10F
MEDICINE HAT   PTSUNNY   79  45  29 NW9G17    30.04S
CARDSTON         N/A     70  52  52 E3          N/A
MILK RIVER       N/A     72  50  46 NW3         N/A
ONEFOUR          N/A     73  48  40 NW12G18     N/A
$$

REGIONAL REPORTS...SASKATCHEWAN

CITY           SKY/WX    TMP DP  RH WIND       PRES   REMARKS
SWIFT CURRENT  MOSUNNY   75  46  35 NW17G25   30.01S
REGINA         PTSUNNY   79  52  38 NW13G25   29.93F
SASKATOON      PTSUNNY   63  46  55 N10G21    30.04F
CYPRESS HILLS    N/A     66  41  39 N5          N/A
VAL MARIE        N/A     77  43  29 NW15        N/A
ROCKGLEN         N/A     70  43  37 NW16G23     N/A
ASSINIBOIA       N/A     63  37  39 NW7         N/A
$$



USA.gov is the U.S. government's official web portal to all federal, state and local government web resources and services.